Time,TemperatureF,DewpointF,PressureIn,WindDirection,WindDirectionDegrees,WindSpeedMPH,WindSpeedGustMPH,Humidity,HourlyPrecipIn,Conditions,Clouds,dailyrainin,SoftwareType,DateUTC
2013-11-06 00:03:00,59.3,57.6,29.94,SE,138,3.0,5.0,94,0.00,,,0.64,Wunderground v.1.15,2013-11-06 06:03:00,
2013-11-06 00:09:00,59.5,57.8,29.94,SSE,152,2.0,4.0,94,0.00,,,0.64,Wunderground v.1.15,2013-11-06 06:09:00,
2013-11-06 00:15:00,59.5,57.8,29.93,South,178,3.0,4.0,94,0.00,,,0.00,Wunderground v.1.15,2013-11-06 06:15:00,
2013-11-06 00:20:00,59.5,57.8,29.93,South,178,4.0,4.0,94,0.00,,,0.00,Wunderground v.1.15,2013-11-06 06:20:00,
2013-11-06 00:26:00,59.6,57.9,29.93,ESE,122,5.0,5.0,94,0.00,,,0.01,Wunderground v.1.15,2013-11-06 06:26:00,
2013-11-06 00:31:00,59.8,58.4,29.93,SSW,209,4.0,5.0,95,0.00,,,0.01,Wunderground v.1.15,2013-11-06 06:31:00,
2013-11-06 00:37:00,59.8,58.4,29.93,SSE,165,2.0,4.0,95,0.10,,,0.02,Wunderground v.1.15,2013-11-06 06:37:00,
2013-11-06 00:43:00,59.8,58.4,29.92,SSE,159,1.0,6.0,95,0.11,,,0.03,Wunderground v.1.15,2013-11-06 06:43:00,
2013-11-06 00:49:00,59.8,58.4,29.92,SE,139,7.0,7.0,95,0.42,,,0.06,Wunderground v.1.15,2013-11-06 06:49:00,
2013-11-06 00:55:00,59.6,58.2,29.92,SSE,155,1.0,7.0,95,0.17,,,0.08,Wunderground v.1.15,2013-11-06 06:55:00,
2013-11-06 01:01:00,59.6,58.2,29.91,ESE,117,5.0,9.0,95,0.24,,,0.11,Wunderground v.1.15,2013-11-06 07:01:00,
2013-11-06 01:07:00,59.6,58.2,29.91,SE,144,2.0,4.0,95,0.08,,,0.11,Wunderground v.1.15,2013-11-06 07:07:00,
2013-11-06 01:12:00,59.6,58.2,29.90,South,190,3.0,10.0,95,0.05,,,0.11,Wunderground v.1.15,2013-11-06 07:12:00,
2013-11-06 01:18:00,59.6,58.2,29.90,SE,138,3.0,4.0,95,0.00,,,0.11,Wunderground v.1.15,2013-11-06 07:18:00,
2013-11-06 01:24:00,59.6,58.2,29.90,SSE,153,1.0,4.0,95,0.00,,,0.12,Wunderground v.1.15,2013-11-06 07:24:00,
2013-11-06 01:29:00,59.6,58.2,29.90,ESE,120,6.0,6.0,95,0.39,,,0.15,Wunderground v.1.15,2013-11-06 07:29:00,
2013-11-06 01:35:00,59.6,58.2,29.90,SE,143,7.0,9.0,95,0.14,,,0.17,Wunderground v.1.15,2013-11-06 07:35:00,
2013-11-06 01:40:00,59.6,58.2,29.90,SSE,154,2.0,6.0,95,0.51,,,0.19,Wunderground v.1.15,2013-11-06 07:40:00,
2013-11-06 01:46:00,59.6,58.5,29.90,SSE,149,3.0,3.0,96,0.12,,,0.20,Wunderground v.1.15,2013-11-06 07:46:00,
2013-11-06 01:51:00,59.5,58.4,29.90,SSE,153,1.0,5.0,96,0.11,,,0.21,Wunderground v.1.15,2013-11-06 07:51:00,
2013-11-06 01:56:00,59.5,58.4,29.89,ESE,108,4.0,4.0,96,0.06,,,0.21,Wunderground v.1.15,2013-11-06 07:56:00,
2013-11-06 02:01:00,59.5,58.4,29.89,South,170,2.0,7.0,96,0.04,,,0.21,Wunderground v.1.15,2013-11-06 08:01:00,
2013-11-06 02:06:00,59.5,58.4,29.89,SE,141,5.0,9.0,96,0.00,,,0.21,Wunderground v.1.15,2013-11-06 08:06:00,
2013-11-06 02:12:00,59.5,58.4,29.88,SE,140,3.0,9.0,96,0.00,,,0.21,Wunderground v.1.15,2013-11-06 08:12:00,
2013-11-06 02:17:00,59.5,58.4,29.88,SSE,154,4.0,5.0,96,0.00,,,0.21,Wunderground v.1.15,2013-11-06 08:17:00,
2013-11-06 02:22:00,59.5,58.4,29.88,SSE,163,2.0,6.0,96,0.00,,,0.21,Wunderground v.1.15,2013-11-06 08:22:00,
2013-11-06 02:27:00,59.5,58.4,29.88,SSE,151,4.0,9.0,96,0.00,,,0.21,Wunderground v.1.15,2013-11-06 08:27:00,
2013-11-06 02:32:00,59.6,58.5,29.88,SSW,194,4.0,11.0,96,0.00,,,0.21,Wunderground v.1.15,2013-11-06 08:32:00,
2013-11-06 02:37:00,59.6,58.5,29.88,SE,134,4.0,9.0,96,0.00,,,0.21,Wunderground v.1.15,2013-11-06 08:37:00,
2013-11-06 02:42:00,59.6,58.5,29.87,SSW,198,3.0,9.0,96,0.00,,,0.22,Wunderground v.1.15,2013-11-06 08:42:00,
2013-11-06 02:47:00,59.6,58.5,29.87,SSE,160,3.0,6.0,96,0.00,,,0.22,Wunderground v.1.15,2013-11-06 08:47:00,
2013-11-06 02:52:00,59.6,58.5,29.87,SSW,212,1.0,6.0,96,0.00,,,0.22,Wunderground v.1.15,2013-11-06 08:52:00,
2013-11-06 02:57:00,59.6,58.5,29.87,SW,234,2.0,4.0,96,0.04,,,0.23,Wunderground v.1.15,2013-11-06 08:57:00,
2013-11-06 03:02:00,59.6,58.5,29.87,SSE,155,0.0,5.0,96,0.04,,,0.23,Wunderground v.1.15,2013-11-06 09:02:00,
2013-11-06 03:07:00,59.6,58.5,29.87,South,171,4.0,4.0,96,0.04,,,0.23,Wunderground v.1.15,2013-11-06 09:07:00,
2013-11-06 03:12:00,59.6,58.5,29.86,ESE,118,6.0,6.0,96,0.04,,,0.23,Wunderground v.1.15,2013-11-06 09:12:00,
2013-11-06 03:17:00,59.8,58.7,29.86,South,191,3.0,4.0,96,0.00,,,0.23,Wunderground v.1.15,2013-11-06 09:17:00,
2013-11-06 03:22:00,59.8,58.7,29.86,ESE,119,0.0,6.0,96,0.00,,,0.23,Wunderground v.1.15,2013-11-06 09:22:00,
2013-11-06 03:27:00,59.8,58.7,29.86,South,172,3.0,6.0,96,0.00,,,0.24,Wunderground v.1.15,2013-11-06 09:27:00,
2013-11-06 03:32:00,59.8,58.7,29.86,South,173,0.0,6.0,96,0.22,,,0.26,Wunderground v.1.15,2013-11-06 09:32:00,
2013-11-06 03:37:00,59.8,58.7,29.86,NNW,341,3.0,9.0,96,1.57,,,0.29,Wunderground v.1.15,2013-11-06 09:37:00,
2013-11-06 03:42:00,59.3,58.2,29.91,NNW,336,0.0,9.0,96,2.41,,,0.46,Wunderground v.1.15,2013-11-06 09:42:00,
2013-11-06 03:47:00,58.9,57.8,29.91,WNW,288,0.0,2.0,96,0.69,,,0.58,Wunderground v.1.15,2013-11-06 09:47:00,
2013-11-06 03:52:00,58.7,57.6,29.91,NNW,341,0.0,6.0,96,0.21,,,0.60,Wunderground v.1.15,2013-11-06 09:52:00,
2013-11-06 03:57:00,58.6,57.5,29.91,NNW,341,0.0,1.0,96,0.08,,,0.60,Wunderground v.1.15,2013-11-06 09:57:00,
2013-11-06 04:02:00,58.4,57.3,29.91,NW,317,0.0,1.0,96,0.07,,,0.61,Wunderground v.1.15,2013-11-06 10:02:00,
2013-11-06 04:07:00,58.4,57.3,29.91,NW,323,3.0,3.0,96,0.07,,,0.61,Wunderground v.1.15,2013-11-06 10:07:00,
2013-11-06 04:12:00,58.3,57.2,29.92,North,355,0.0,4.0,96,0.05,,,0.62,Wunderground v.1.15,2013-11-06 10:12:00,
2013-11-06 04:17:00,58.3,57.2,29.92,North,355,0.0,1.0,96,0.05,,,0.62,Wunderground v.1.15,2013-11-06 10:17:00,
2013-11-06 04:22:00,58.3,57.2,29.92,North,355,0.0,1.0,96,0.05,,,0.62,Wunderground v.1.15,2013-11-06 10:22:00,
2013-11-06 04:27:00,58.3,57.2,29.93,North,355,0.0,0.0,96,0.04,,,0.63,Wunderground v.1.15,2013-11-06 10:27:00,
2013-11-06 04:32:00,58.1,57.0,29.93,NNW,348,0.0,3.0,96,0.04,,,0.63,Wunderground v.1.15,2013-11-06 10:32:00,
2013-11-06 04:37:00,58.1,57.0,29.93,NNW,332,0.0,4.0,96,0.09,,,0.64,Wunderground v.1.15,2013-11-06 10:37:00,
2013-11-06 04:42:00,57.8,56.7,29.94,NNW,341,5.0,6.0,96,0.07,,,0.65,Wunderground v.1.15,2013-11-06 10:42:00,
2013-11-06 04:47:00,57.3,56.2,29.94,NNW,338,6.0,6.0,96,0.07,,,0.65,Wunderground v.1.15,2013-11-06 10:47:00,
2013-11-06 04:53:00,57.0,55.9,29.94,NNW,345,0.0,6.0,96,0.05,,,0.65,Wunderground v.1.15,2013-11-06 10:53:00,
2013-11-06 04:58:00,56.7,55.6,29.93,NNW,345,0.0,2.0,96,0.00,,,0.65,Wunderground v.1.15,2013-11-06 10:58:00,
2013-11-06 05:03:00,56.6,55.5,29.93,NNW,345,0.0,2.0,96,0.00,,,0.65,Wunderground v.1.15,2013-11-06 11:03:00,
2013-11-06 05:08:00,56.2,55.1,29.93,NNE,22,5.0,9.0,96,0.00,,,0.65,Wunderground v.1.15,2013-11-06 11:08:00,
2013-11-06 05:13:00,55.6,54.5,29.94,NNW,336,0.0,9.0,96,0.00,,,0.65,Wunderground v.1.15,2013-11-06 11:13:00,
2013-11-06 05:18:00,55.1,54.0,29.94,NNW,340,0.0,4.0,96,0.00,,,0.65,Wunderground v.1.15,2013-11-06 11:18:00,
2013-11-06 05:23:00,55.0,53.9,29.94,NNW,346,4.0,4.0,96,0.00,,,0.65,Wunderground v.1.15,2013-11-06 11:23:00,
2013-11-06 05:28:00,54.7,53.6,29.93,NNW,348,2.0,3.0,96,0.00,,,0.65,Wunderground v.1.15,2013-11-06 11:28:00,
2013-11-06 05:33:00,54.5,53.4,29.93,NNW,348,3.0,4.0,96,0.00,,,0.65,Wunderground v.1.15,2013-11-06 11:33:00,
2013-11-06 05:38:00,54.2,53.1,29.93,NNW,348,0.0,4.0,96,0.00,,,0.65,Wunderground v.1.15,2013-11-06 11:38:00,
2013-11-06 05:43:00,54.1,53.0,29.92,NNW,348,1.0,5.0,96,0.00,,,0.65,Wunderground v.1.15,2013-11-06 11:43:00,
2013-11-06 05:48:00,53.9,52.8,29.92,NNW,348,0.0,2.0,96,0.00,,,0.66,Wunderground v.1.15,2013-11-06 11:48:00,
2013-11-06 05:53:00,53.8,52.7,29.92,NNW,348,0.0,2.0,96,0.00,,,0.66,Wunderground v.1.15,2013-11-06 11:53:00,
2013-11-06 05:58:00,53.8,52.7,29.94,NNW,348,0.0,0.0,96,0.00,,,0.66,Wunderground v.1.15,2013-11-06 11:58:00,
2013-11-06 06:03:00,53.6,52.5,29.94,NNW,340,5.0,5.0,96,0.00,,,0.66,Wunderground v.1.15,2013-11-06 12:03:00,
2013-11-06 06:08:00,53.1,52.0,29.94,NNW,344,4.0,12.0,96,0.00,,,0.66,Wunderground v.1.15,2013-11-06 12:08:00,
2013-11-06 06:13:00,52.0,50.6,29.97,WNW,289,4.0,12.0,95,0.00,,,0.66,Wunderground v.1.15,2013-11-06 12:13:00,
2013-11-06 06:18:00,50.1,48.4,29.97,WNW,303,0.0,6.0,94,0.00,,,0.66,Wunderground v.1.15,2013-11-06 12:18:00,
2013-11-06 06:23:00,49.1,47.7,29.97,NNW,327,4.0,6.0,95,0.00,,,0.66,Wunderground v.1.15,2013-11-06 12:23:00,
2013-11-06 06:28:00,48.5,47.1,30.00,NNW,332,0.0,10.0,95,0.00,,,0.66,Wunderground v.1.15,2013-11-06 12:28:00,
2013-11-06 06:33:00,47.7,46.3,30.00,North,5,4.0,12.0,95,0.00,,,0.66,Wunderground v.1.15,2013-11-06 12:33:00,
2013-11-06 06:38:00,47.1,45.7,30.00,NNW,327,3.0,10.0,95,0.00,,,0.66,Wunderground v.1.15,2013-11-06 12:38:00,
2013-11-06 06:43:00,46.8,45.4,30.01,North,355,1.0,10.0,95,0.00,,,0.66,Wunderground v.1.15,2013-11-06 12:43:00,
2013-11-06 06:48:00,46.5,45.1,30.01,North,9,5.0,7.0,95,0.00,,,0.66,Wunderground v.1.15,2013-11-06 12:48:00,
2013-11-06 06:54:00,46.5,45.4,30.01,SE,132,1.0,7.0,96,0.00,,,0.66,Wunderground v.1.15,2013-11-06 12:54:00,
2013-11-06 06:59:00,46.0,44.6,30.04,NNW,329,3.0,5.0,95,0.00,,,0.66,Wunderground v.1.15,2013-11-06 12:59:00,
2013-11-06 07:04:00,45.7,44.4,30.04,NNW,329,0.0,7.0,95,0.00,,,0.66,Wunderground v.1.15,2013-11-06 13:04:00,
2013-11-06 07:09:00,45.4,44.1,30.04,SW,223,4.0,4.0,95,0.00,,,0.66,Wunderground v.1.15,2013-11-06 13:09:00,
2013-11-06 07:14:00,44.9,43.6,30.05,NW,324,4.0,5.0,95,0.00,,,0.66,Wunderground v.1.15,2013-11-06 13:14:00,
2013-11-06 07:19:00,44.5,43.2,30.05,NNE,15,4.0,4.0,95,0.00,,,0.66,Wunderground v.1.15,2013-11-06 13:19:00,
2013-11-06 07:24:00,44.2,42.9,30.05,NNW,340,2.0,9.0,95,0.00,,,0.66,Wunderground v.1.15,2013-11-06 13:24:00,
2013-11-06 07:29:00,44.1,43.0,30.05,North,355,4.0,10.0,96,0.00,,,0.66,Wunderground v.1.15,2013-11-06 13:29:00,
2013-11-06 07:34:00,43.9,42.8,30.05,NNW,338,4.0,10.0,96,0.00,,,0.66,Wunderground v.1.15,2013-11-06 13:34:00,
2013-11-06 07:39:00,43.6,42.5,30.05,NNW,346,6.0,10.0,96,0.00,,,0.66,Wunderground v.1.15,2013-11-06 13:39:00,
2013-11-06 07:44:00,43.5,42.4,30.06,NNW,338,1.0,11.0,96,0.00,,,0.66,Wunderground v.1.15,2013-11-06 13:44:00,
2013-11-06 07:49:00,43.5,42.4,30.06,NNW,336,2.0,7.0,96,0.00,,,0.66,Wunderground v.1.15,2013-11-06 13:49:00,
2013-11-06 07:54:00,43.5,42.4,30.06,WNW,299,0.0,7.0,96,0.00,,,0.66,Wunderground v.1.15,2013-11-06 13:54:00,
2013-11-06 07:59:00,43.3,42.2,30.07,NNW,340,5.0,7.0,96,0.00,,,0.66,Wunderground v.1.15,2013-11-06 13:59:00,
2013-11-06 08:05:00,43.3,42.2,30.07,NW,316,3.0,9.0,96,0.00,,,0.66,Wunderground v.1.15,2013-11-06 14:05:00,
2013-11-06 08:10:00,43.2,42.1,30.07,NNW,342,6.0,6.0,96,0.00,,,0.66,Wunderground v.1.15,2013-11-06 14:10:00,
2013-11-06 08:15:00,43.2,42.1,30.09,NNW,338,0.0,10.0,96,0.00,,,0.66,Wunderground v.1.15,2013-11-06 14:15:00,
2013-11-06 08:20:00,42.9,41.8,30.09,NNW,348,3.0,11.0,96,0.00,,,0.66,Wunderground v.1.15,2013-11-06 14:20:00,
2013-11-06 08:25:00,42.8,41.7,30.09,NNW,336,3.0,11.0,96,0.00,,,0.66,Wunderground v.1.15,2013-11-06 14:25:00,
2013-11-06 08:30:00,42.6,41.5,30.09,NNW,340,0.0,7.0,96,0.00,,,0.66,Wunderground v.1.15,2013-11-06 14:30:00,
2013-11-06 08:35:00,42.6,41.5,30.09,North,355,3.0,7.0,96,0.00,,,0.66,Wunderground v.1.15,2013-11-06 14:35:00,
2013-11-06 08:40:00,42.5,41.4,30.09,NNW,336,2.0,9.0,96,0.00,,,0.66,Wunderground v.1.15,2013-11-06 14:40:00,
2013-11-06 08:45:00,42.3,41.2,30.11,NNW,339,0.0,10.0,96,0.00,,,0.66,Wunderground v.1.15,2013-11-06 14:45:00,
2013-11-06 08:50:00,42.2,41.1,30.11,NNW,346,3.0,5.0,96,0.00,,,0.66,Wunderground v.1.15,2013-11-06 14:50:00,
2013-11-06 08:55:00,42.1,41.0,30.12,NW,324,1.0,6.0,96,0.00,,,0.66,Wunderground v.1.15,2013-11-06 14:55:00,
2013-11-06 09:01:00,41.9,40.8,30.12,NNE,15,1.0,7.0,96,0.00,,,0.66,Wunderground v.1.15,2013-11-06 15:01:00,
2013-11-06 09:06:00,41.9,40.8,30.12,NNW,347,4.0,8.0,96,0.00,,,0.66,Wunderground v.1.15,2013-11-06 15:06:00,
2013-11-06 09:11:00,41.9,40.8,30.13,NW,326,5.0,10.0,96,0.00,,,0.66,Wunderground v.1.15,2013-11-06 15:11:00,
2013-11-06 09:16:00,42.1,41.0,30.13,NNW,340,4.0,4.0,96,0.00,,,0.66,Wunderground v.1.15,2013-11-06 15:16:00,
2013-11-06 09:21:00,42.1,41.0,30.13,NNW,329,0.0,8.0,96,0.00,,,0.66,Wunderground v.1.15,2013-11-06 15:21:00,
2013-11-06 09:26:00,42.1,41.0,30.14,NNW,336,0.0,2.0,96,0.00,,,0.66,Wunderground v.1.15,2013-11-06 15:26:00,
2013-11-06 09:31:00,41.9,40.8,30.14,NNW,327,6.0,8.0,96,0.00,,,0.66,Wunderground v.1.15,2013-11-06 15:31:00,
2013-11-06 09:37:00,41.6,40.5,30.14,North,355,1.0,5.0,96,0.00,,,0.66,Wunderground v.1.15,2013-11-06 15:37:00,
2013-11-06 09:42:00,41.5,40.4,30.14,NNW,345,3.0,9.0,96,0.00,,,0.66,Wunderground v.1.15,2013-11-06 15:42:00,
2013-11-06 09:47:00,41.5,40.4,30.14,NNW,337,2.0,4.0,96,0.00,,,0.66,Wunderground v.1.15,2013-11-06 15:47:00,
2013-11-06 09:52:00,41.3,40.2,30.14,NNW,327,4.0,6.0,96,0.00,,,0.66,Wunderground v.1.15,2013-11-06 15:52:00,
2013-11-06 09:57:00,41.2,40.1,30.14,NNW,333,3.0,5.0,96,0.00,,,0.66,Wunderground v.1.15,2013-11-06 15:57:00,
2013-11-06 10:02:00,41.1,40.0,30.14,North,349,5.0,12.0,96,0.00,,,0.66,Wunderground v.1.15,2013-11-06 16:02:00,
2013-11-06 10:07:00,41.2,40.1,30.14,NNW,327,5.0,5.0,96,0.00,,,0.66,Wunderground v.1.15,2013-11-06 16:07:00,
2013-11-06 10:12:00,41.2,40.1,30.15,NNW,339,5.0,5.0,96,0.00,,,0.66,Wunderground v.1.15,2013-11-06 16:12:00,
2013-11-06 10:17:00,41.2,40.1,30.15,North,360,7.0,7.0,96,0.00,,,0.66,Wunderground v.1.15,2013-11-06 16:17:00,
2013-11-06 10:22:00,40.8,39.7,30.15,NNW,337,4.0,11.0,96,0.00,,,0.66,Wunderground v.1.15,2013-11-06 16:22:00,
2013-11-06 10:27:00,40.8,39.7,30.15,North,355,6.0,12.0,96,0.00,,,0.66,Wunderground v.1.15,2013-11-06 16:27:00,
2013-11-06 10:32:00,40.6,39.5,30.15,NNW,348,4.0,12.0,96,0.00,,,0.66,Wunderground v.1.15,2013-11-06 16:32:00,
2013-11-06 10:37:00,40.5,39.4,30.15,NW,317,3.0,9.0,96,0.00,,,0.66,Wunderground v.1.15,2013-11-06 16:37:00,
2013-11-06 10:43:00,40.3,39.3,30.16,NW,326,9.0,9.0,96,0.00,,,0.66,Wunderground v.1.15,2013-11-06 16:43:00,
2013-11-06 10:48:00,40.3,39.3,30.16,North,349,7.0,7.0,96,0.00,,,0.66,Wunderground v.1.15,2013-11-06 16:48:00,
2013-11-06 10:53:00,40.5,39.4,30.16,North,350,4.0,12.0,96,0.00,,,0.66,Wunderground v.1.15,2013-11-06 16:53:00,
2013-11-06 10:58:00,40.5,39.4,30.17,NNW,328,5.0,10.0,96,0.00,,,0.66,Wunderground v.1.15,2013-11-06 16:58:00,
2013-11-06 11:03:00,40.3,39.3,30.17,NNE,17,7.0,13.0,96,0.00,,,0.66,Wunderground v.1.15,2013-11-06 17:03:00,
2013-11-06 11:08:00,40.2,39.2,30.17,NNW,337,10.0,15.0,96,0.00,,,0.66,Wunderground v.1.15,2013-11-06 17:08:00,
2013-11-06 11:13:00,40.3,39.3,30.17,North,5,4.0,15.0,96,0.00,,,0.66,Wunderground v.1.15,2013-11-06 17:13:00,
2013-11-06 11:18:00,40.2,39.2,30.17,North,5,9.0,17.0,96,0.00,,,0.66,Wunderground v.1.15,2013-11-06 17:18:00,
2013-11-06 11:23:00,40.1,39.1,30.17,North,349,12.0,17.0,96,0.00,,,0.66,Wunderground v.1.15,2013-11-06 17:23:00,
2013-11-06 11:28:00,39.9,38.9,30.17,NNW,333,7.0,12.0,96,0.00,,,0.66,Wunderground v.1.15,2013-11-06 17:28:00,
2013-11-06 11:33:00,40.1,39.1,30.17,NNW,336,5.0,12.0,96,0.00,,,0.66,Wunderground v.1.15,2013-11-06 17:33:00,
2013-11-06 11:38:00,40.2,39.2,30.17,NNW,337,9.0,10.0,96,0.00,,,0.66,Wunderground v.1.15,2013-11-06 17:38:00,
2013-11-06 11:43:00,40.1,39.1,30.17,NNW,339,3.0,10.0,96,0.00,,,0.66,Wunderground v.1.15,2013-11-06 17:43:00,
2013-11-06 11:48:00,40.1,39.1,30.17,NNW,335,1.0,9.0,96,0.00,,,0.66,Wunderground v.1.15,2013-11-06 17:48:00,
2013-11-06 11:53:00,40.2,39.2,30.17,NNE,17,6.0,9.0,96,0.00,,,0.66,Wunderground v.1.15,2013-11-06 17:53:00,
2013-11-06 11:59:00,40.1,38.2,30.17,NNW,346,3.0,8.0,93,0.00,,,0.66,Wunderground v.1.15,2013-11-06 17:59:00,
2013-11-06 12:04:00,39.9,38.6,30.17,NNW,339,2.0,9.0,95,0.00,,,0.66,Wunderground v.1.15,2013-11-06 18:04:00,
2013-11-06 12:09:00,40.1,39.1,30.17,NNW,346,2.0,7.0,96,0.00,,,0.66,Wunderground v.1.15,2013-11-06 18:09:00,
2013-11-06 12:14:00,40.2,38.9,30.18,NNW,341,7.0,7.0,95,0.00,,,0.66,Wunderground v.1.15,2013-11-06 18:14:00,
2013-11-06 12:19:00,40.1,38.8,30.18,NNW,328,5.0,7.0,95,0.00,,,0.66,Wunderground v.1.15,2013-11-06 18:19:00,
2013-11-06 12:24:00,40.2,38.9,30.18,NNW,348,5.0,12.0,95,0.00,,,0.66,Wunderground v.1.15,2013-11-06 18:24:00,
2013-11-06 12:29:00,40.2,38.9,30.17,North,360,9.0,13.0,95,0.00,,,0.66,Wunderground v.1.15,2013-11-06 18:29:00,
2013-11-06 12:34:00,40.2,38.9,30.17,North,355,7.0,13.0,95,0.00,,,0.66,Wunderground v.1.15,2013-11-06 18:34:00,
2013-11-06 12:39:00,40.2,38.6,30.17,NNW,345,4.0,6.0,94,0.00,,,0.66,Wunderground v.1.15,2013-11-06 18:39:00,
2013-11-06 12:44:00,40.2,38.6,30.17,NNW,331,1.0,9.0,94,0.00,,,0.66,Wunderground v.1.15,2013-11-06 18:44:00,
2013-11-06 12:50:00,40.2,38.6,30.17,NNW,328,5.0,5.0,94,0.00,,,0.66,Wunderground v.1.15,2013-11-06 18:50:00,
2013-11-06 12:55:00,40.2,38.6,30.17,North,349,0.0,6.0,94,0.00,,,0.66,Wunderground v.1.15,2013-11-06 18:55:00,
2013-11-06 13:00:00,40.5,38.6,30.17,NNW,342,2.0,12.0,93,0.00,,,0.66,Wunderground v.1.15,2013-11-06 19:00:00,
2013-11-06 13:05:00,40.8,38.9,30.17,NNW,346,4.0,12.0,93,0.00,,,0.66,Wunderground v.1.15,2013-11-06 19:05:00,
2013-11-06 13:10:00,41.1,39.2,30.17,NNW,342,0.0,11.0,93,0.00,,,0.66,Wunderground v.1.15,2013-11-06 19:10:00,
2013-11-06 13:16:00,41.2,39.1,30.17,NNE,21,7.0,11.0,92,0.00,,,0.66,Wunderground v.1.15,2013-11-06 19:16:00,
2013-11-06 13:21:00,41.3,39.2,30.17,NNW,336,9.0,10.0,92,0.00,,,0.66,Wunderground v.1.15,2013-11-06 19:21:00,
2013-11-06 13:26:00,41.2,38.8,30.17,North,5,9.0,13.0,91,0.00,,,0.66,Wunderground v.1.15,2013-11-06 19:26:00,
2013-11-06 13:31:00,41.2,38.5,30.17,NNW,338,5.0,14.0,90,0.00,,,0.66,Wunderground v.1.15,2013-11-06 19:31:00,
2013-11-06 13:36:00,41.1,38.4,30.17,NNW,343,10.0,10.0,90,0.00,,,0.66,Wunderground v.1.15,2013-11-06 19:36:00,
2013-11-06 13:42:00,41.1,38.4,30.18,North,355,6.0,10.0,90,0.00,,,0.66,Wunderground v.1.15,2013-11-06 19:42:00,
2013-11-06 13:47:00,41.1,38.4,30.18,NW,323,4.0,8.0,90,0.00,,,0.66,Wunderground v.1.15,2013-11-06 19:47:00,
2013-11-06 13:52:00,41.1,38.1,30.18,NNW,343,0.0,9.0,89,0.00,,,0.66,Wunderground v.1.15,2013-11-06 19:52:00,
2013-11-06 13:57:00,41.2,38.2,30.17,NNW,331,2.0,9.0,89,0.00,,,0.66,Wunderground v.1.15,2013-11-06 19:57:00,
2013-11-06 14:02:00,41.1,38.1,30.17,North,360,9.0,15.0,89,0.00,,,0.66,Wunderground v.1.15,2013-11-06 20:02:00,
2013-11-06 14:07:00,41.2,38.2,30.17,North,355,6.0,6.0,89,0.00,,,0.66,Wunderground v.1.15,2013-11-06 20:07:00,
2013-11-06 14:12:00,41.6,38.3,30.18,North,351,3.0,11.0,88,0.00,,,0.66,Wunderground v.1.15,2013-11-06 20:12:00,
2013-11-06 14:17:00,41.9,38.3,30.18,North,5,5.0,6.0,87,0.00,,,0.66,Wunderground v.1.15,2013-11-06 20:17:00,
2013-11-06 14:23:00,41.9,38.0,30.18,North,355,5.0,13.0,86,0.00,,,0.66,Wunderground v.1.15,2013-11-06 20:23:00,
2013-11-06 14:28:00,41.8,37.6,30.18,North,5,6.0,13.0,85,0.00,,,0.66,Wunderground v.1.15,2013-11-06 20:28:00,
2013-11-06 14:33:00,41.6,37.4,30.18,NNW,342,10.0,13.0,85,0.00,,,0.66,Wunderground v.1.15,2013-11-06 20:33:00,
2013-11-06 14:38:00,41.6,37.4,30.18,NNW,342,5.0,8.0,85,0.00,,,0.66,Wunderground v.1.15,2013-11-06 20:38:00,
2013-11-06 14:43:00,41.8,37.9,30.19,NNW,342,10.0,11.0,86,0.00,,,0.66,Wunderground v.1.15,2013-11-06 20:43:00,
2013-11-06 14:48:00,41.9,37.7,30.19,NNW,348,7.0,11.0,85,0.00,,,0.66,Wunderground v.1.15,2013-11-06 20:48:00,
2013-11-06 14:53:00,42.2,37.7,30.19,NNW,344,6.0,11.0,84,0.00,,,0.66,Wunderground v.1.15,2013-11-06 20:53:00,
2013-11-06 14:58:00,42.5,38.0,30.19,North,355,9.0,11.0,84,0.00,,,0.66,Wunderground v.1.15,2013-11-06 20:58:00,
2013-11-06 15:03:00,42.5,37.7,30.19,NNW,347,4.0,12.0,83,0.00,,,0.66,Wunderground v.1.15,2013-11-06 21:03:00,
2013-11-06 15:08:00,42.5,37.4,30.19,NNW,342,2.0,6.0,82,0.00,,,0.66,Wunderground v.1.15,2013-11-06 21:08:00,
2013-11-06 15:13:00,42.6,37.8,30.20,NNW,333,2.0,7.0,83,0.00,,,0.66,Wunderground v.1.15,2013-11-06 21:13:00,
2013-11-06 15:18:00,42.5,37.7,30.20,NNW,342,1.0,5.0,83,0.00,,,0.66,Wunderground v.1.15,2013-11-06 21:18:00,
2013-11-06 15:23:00,42.6,37.8,30.20,NNW,341,2.0,11.0,83,0.00,,,0.66,Wunderground v.1.15,2013-11-06 21:23:00,
2013-11-06 15:28:00,42.6,37.5,30.22,North,5,3.0,10.0,82,0.00,,,0.66,Wunderground v.1.15,2013-11-06 21:28:00,
2013-11-06 15:33:00,42.6,37.5,30.22,NNW,327,3.0,11.0,82,0.00,,,0.66,Wunderground v.1.15,2013-11-06 21:33:00,
2013-11-06 15:38:00,42.6,37.5,30.22,NNW,343,3.0,9.0,82,0.00,,,0.66,Wunderground v.1.15,2013-11-06 21:38:00,
2013-11-06 15:43:00,42.8,37.7,30.22,NNW,332,3.0,9.0,82,0.00,,,0.66,Wunderground v.1.15,2013-11-06 21:43:00,
2013-11-06 15:48:00,42.8,37.1,30.22,NW,311,5.0,11.0,80,0.00,,,0.66,Wunderground v.1.15,2013-11-06 21:48:00,
2013-11-06 15:53:00,42.8,37.1,30.22,NNW,332,3.0,11.0,80,0.00,,,0.66,Wunderground v.1.15,2013-11-06 21:53:00,
2013-11-06 15:59:00,42.8,37.4,30.22,NNW,327,4.0,8.0,81,0.00,,,0.66,Wunderground v.1.15,2013-11-06 21:59:00,
2013-11-06 16:04:00,42.8,37.4,30.22,NNW,345,4.0,9.0,81,0.00,,,0.66,Wunderground v.1.15,2013-11-06 22:04:00,
2013-11-06 16:09:00,42.6,37.2,30.22,North,10,5.0,9.0,81,0.00,,,0.66,Wunderground v.1.15,2013-11-06 22:09:00,
2013-11-06 16:14:00,42.5,37.1,30.23,NNW,331,7.0,10.0,81,0.00,,,0.66,Wunderground v.1.15,2013-11-06 22:14:00,
2013-11-06 16:19:00,42.3,36.6,30.23,NNW,329,1.0,12.0,80,0.00,,,0.66,Wunderground v.1.15,2013-11-06 22:19:00,
2013-11-06 16:24:00,42.3,36.6,30.23,NNW,343,3.0,12.0,80,0.00,,,0.66,Wunderground v.1.15,2013-11-06 22:24:00,
2013-11-06 16:29:00,42.2,36.5,30.23,NNW,343,8.0,8.0,80,0.00,,,0.66,Wunderground v.1.15,2013-11-06 22:29:00,
2013-11-06 16:34:00,42.1,36.4,30.23,NW,326,2.0,12.0,80,0.00,,,0.66,Wunderground v.1.15,2013-11-06 22:34:00,
2013-11-06 16:39:00,42.1,36.1,30.23,NNW,346,6.0,14.0,79,0.00,,,0.66,Wunderground v.1.15,2013-11-06 22:39:00,
2013-11-06 16:44:00,41.9,35.5,30.24,North,360,10.0,17.0,78,0.00,,,0.66,Wunderground v.1.15,2013-11-06 22:44:00,
2013-11-06 16:49:00,41.8,35.1,30.24,North,350,10.0,13.0,77,0.00,,,0.66,Wunderground v.1.15,2013-11-06 22:49:00,
2013-11-06 16:54:00,41.8,35.1,30.24,NNE,15,9.0,13.0,77,0.00,,,0.66,Wunderground v.1.15,2013-11-06 22:54:00,
2013-11-06 16:59:00,41.6,34.9,30.24,North,5,12.0,12.0,77,0.00,,,0.66,Wunderground v.1.15,2013-11-06 22:59:00,
2013-11-06 17:04:00,41.6,34.6,30.24,North,5,7.0,13.0,76,0.00,,,0.66,Wunderground v.1.15,2013-11-06 23:04:00,
2013-11-06 17:09:00,41.5,34.2,30.24,North,355,12.0,17.0,75,0.00,,,0.66,Wunderground v.1.15,2013-11-06 23:09:00,
2013-11-06 17:14:00,41.5,34.2,30.24,NNW,346,8.0,17.0,75,0.00,,,0.66,Wunderground v.1.15,2013-11-06 23:14:00,
2013-11-06 17:19:00,41.5,34.5,30.24,NNE,29,7.0,11.0,76,0.00,,,0.66,Wunderground v.1.15,2013-11-06 23:19:00,
2013-11-06 17:24:00,41.5,34.5,30.24,North,360,13.0,13.0,76,0.00,,,0.66,Wunderground v.1.15,2013-11-06 23:24:00,
2013-11-06 17:29:00,41.5,34.5,30.26,North,9,8.0,12.0,76,0.00,,,0.66,Wunderground v.1.15,2013-11-06 23:29:00,
2013-11-06 17:35:00,41.5,34.5,30.26,North,5,6.0,12.0,76,0.00,,,0.66,Wunderground v.1.15,2013-11-06 23:35:00,
2013-11-06 17:40:00,41.6,34.6,30.26,NNW,328,3.0,13.0,76,0.00,,,0.66,Wunderground v.1.15,2013-11-06 23:40:00,
2013-11-06 17:45:00,41.6,34.6,30.26,NNW,346,3.0,13.0,76,0.00,,,0.66,Wunderground v.1.15,2013-11-06 23:45:00,
2013-11-06 17:50:00,41.6,34.6,30.26,NW,326,5.0,11.0,76,0.00,,,0.66,Wunderground v.1.15,2013-11-06 23:50:00,
2013-11-06 17:55:00,41.6,34.6,30.26,NNW,334,6.0,11.0,76,0.00,,,0.66,Wunderground v.1.15,2013-11-06 23:55:00,
2013-11-06 18:00:00,41.8,35.1,30.27,North,355,4.0,7.0,77,0.00,,,0.66,Wunderground v.1.15,2013-11-07 00:00:00,
2013-11-06 18:05:00,41.8,35.1,30.27,North,5,11.0,13.0,77,0.00,,,0.66,Wunderground v.1.15,2013-11-07 00:05:00,
2013-11-06 18:10:00,41.8,35.1,30.27,NNW,342,7.0,7.0,77,0.00,,,0.66,Wunderground v.1.15,2013-11-07 00:10:00,
2013-11-06 18:15:00,41.8,35.4,30.27,North,350,3.0,7.0,78,0.00,,,0.66,Wunderground v.1.15,2013-11-07 00:15:00,
2013-11-06 18:20:00,41.8,35.4,30.27,NNW,347,3.0,10.0,78,0.00,,,0.66,Wunderground v.1.15,2013-11-07 00:20:00,
2013-11-06 18:26:00,41.8,35.4,30.28,NNW,336,2.0,10.0,78,0.00,,,0.66,Wunderground v.1.15,2013-11-07 00:26:00,
2013-11-06 18:31:00,41.8,35.1,30.28,North,9,5.0,11.0,77,0.00,,,0.66,Wunderground v.1.15,2013-11-07 00:31:00,
2013-11-06 18:36:00,41.8,35.4,30.28,North,11,4.0,5.0,78,0.00,,,0.66,Wunderground v.1.15,2013-11-07 00:36:00,
2013-11-06 18:41:00,41.8,35.1,30.29,North,349,3.0,8.0,77,0.00,,,0.66,Wunderground v.1.15,2013-11-07 00:41:00,
2013-11-06 18:46:00,41.8,34.8,30.29,NNW,340,2.0,4.0,76,0.00,,,0.66,Wunderground v.1.15,2013-11-07 00:46:00,
2013-11-06 18:52:00,41.6,34.3,30.29,NNW,346,4.0,12.0,75,0.00,,,0.66,Wunderground v.1.15,2013-11-07 00:52:00,
2013-11-06 18:57:00,41.6,34.3,30.30,North,5,4.0,4.0,75,0.00,,,0.66,Wunderground v.1.15,2013-11-07 00:57:00,
2013-11-06 19:02:00,41.6,33.9,30.30,NNW,336,4.0,16.0,74,0.00,,,0.66,Wunderground v.1.15,2013-11-07 01:02:00,
2013-11-06 19:07:00,41.5,33.8,30.30,NNW,348,5.0,11.0,74,0.00,,,0.66,Wunderground v.1.15,2013-11-07 01:07:00,
2013-11-06 19:12:00,41.5,33.8,30.30,NNW,330,6.0,12.0,74,0.00,,,0.66,Wunderground v.1.15,2013-11-07 01:12:00,
2013-11-06 19:17:00,41.3,34.0,30.30,NNW,342,7.0,12.0,75,0.00,,,0.66,Wunderground v.1.15,2013-11-07 01:17:00,
2013-11-06 19:22:00,41.3,33.6,30.30,NNW,328,2.0,12.0,74,0.00,,,0.66,Wunderground v.1.15,2013-11-07 01:22:00,
2013-11-06 19:27:00,41.2,33.5,30.30,North,355,3.0,7.0,74,0.00,,,0.66,Wunderground v.1.15,2013-11-07 01:27:00,
2013-11-06 19:32:00,41.2,33.9,30.30,NNW,334,8.0,14.0,75,0.00,,,0.66,Wunderground v.1.15,2013-11-07 01:32:00,
2013-11-06 19:37:00,41.1,32.4,30.30,NNE,28,5.0,14.0,71,0.00,,,0.66,Wunderground v.1.15,2013-11-07 01:37:00,
2013-11-06 19:43:00,41.1,33.8,30.30,North,5,5.0,14.0,75,0.00,,,0.66,Wunderground v.1.15,2013-11-07 01:43:00,
2013-11-06 19:48:00,40.9,33.6,30.30,North,355,4.0,7.0,75,0.00,,,0.66,Wunderground v.1.15,2013-11-07 01:48:00,
2013-11-06 19:53:00,40.9,33.6,30.30,North,351,3.0,7.0,75,0.00,,,0.66,Wunderground v.1.15,2013-11-07 01:53:00,
2013-11-06 19:58:00,40.9,33.9,30.30,North,355,4.0,5.0,76,0.00,,,0.66,Wunderground v.1.15,2013-11-07 01:58:00,
2013-11-06 20:03:00,40.8,33.8,30.30,NNW,344,2.0,7.0,76,0.00,,,0.66,Wunderground v.1.15,2013-11-07 02:03:00,
2013-11-06 20:08:00,40.8,33.8,30.30,North,350,5.0,5.0,76,0.00,,,0.66,Wunderground v.1.15,2013-11-07 02:08:00,
2013-11-06 20:13:00,40.8,34.1,30.30,NE,38,5.0,7.0,77,0.00,,,0.66,Wunderground v.1.15,2013-11-07 02:13:00,
2013-11-06 20:18:00,40.6,33.6,30.30,North,10,9.0,14.0,76,0.00,,,0.66,Wunderground v.1.15,2013-11-07 02:18:00,
2013-11-06 20:23:00,40.5,33.5,30.30,NNW,344,2.0,14.0,76,0.00,,,0.66,Wunderground v.1.15,2013-11-07 02:23:00,
2013-11-06 20:28:00,40.5,33.5,30.32,NNW,342,3.0,7.0,76,0.00,,,0.66,Wunderground v.1.15,2013-11-07 02:28:00,
2013-11-06 20:33:00,40.5,33.5,30.32,NNW,346,5.0,9.0,76,0.00,,,0.66,Wunderground v.1.15,2013-11-07 02:33:00,
2013-11-06 20:38:00,40.3,33.3,30.32,North,360,10.0,11.0,76,0.00,,,0.66,Wunderground v.1.15,2013-11-07 02:38:00,
2013-11-06 20:43:00,40.3,33.3,30.32,North,360,6.0,12.0,76,0.00,,,0.66,Wunderground v.1.15,2013-11-07 02:43:00,
2013-11-06 20:48:00,40.3,33.3,30.32,NNW,348,10.0,11.0,76,0.00,,,0.66,Wunderground v.1.15,2013-11-07 02:48:00,
2013-11-06 20:53:00,40.3,33.3,30.32,North,360,5.0,11.0,76,0.00,,,0.66,Wunderground v.1.15,2013-11-07 02:53:00,
2013-11-06 20:58:00,40.3,33.7,30.33,North,350,5.0,11.0,77,0.00,,,0.66,Wunderground v.1.15,2013-11-07 02:58:00,
2013-11-06 21:03:00,40.3,33.7,30.33,NNW,341,4.0,11.0,77,0.00,,,0.66,Wunderground v.1.15,2013-11-07 03:03:00,
2013-11-06 21:08:00,40.3,33.7,30.33,NNW,344,0.0,5.0,77,0.00,,,0.66,Wunderground v.1.15,2013-11-07 03:08:00,
2013-11-06 21:13:00,40.3,33.7,30.34,North,355,5.0,7.0,77,0.00,,,0.66,Wunderground v.1.15,2013-11-07 03:13:00,
2013-11-06 21:18:00,40.3,33.7,30.34,North,360,3.0,7.0,77,0.00,,,0.66,Wunderground v.1.15,2013-11-07 03:18:00,
2013-11-06 21:23:00,40.3,33.7,30.34,North,9,3.0,7.0,77,0.00,,,0.66,Wunderground v.1.15,2013-11-07 03:23:00,
2013-11-06 21:29:00,40.2,33.6,30.34,NNW,347,4.0,7.0,77,0.00,,,0.66,Wunderground v.1.15,2013-11-07 03:29:00,
2013-11-06 21:34:00,40.1,33.5,30.34,NNW,340,3.0,9.0,77,0.00,,,0.66,Wunderground v.1.15,2013-11-07 03:34:00,
2013-11-06 21:39:00,40.1,33.5,30.34,NNW,345,1.0,7.0,77,0.00,,,0.66,Wunderground v.1.15,2013-11-07 03:39:00,
2013-11-06 21:44:00,39.9,33.3,30.34,NNE,15,4.0,7.0,77,0.00,,,0.66,Wunderground v.1.15,2013-11-07 03:44:00,
2013-11-06 21:49:00,39.9,32.9,30.34,NNE,18,7.0,10.0,76,0.00,,,0.66,Wunderground v.1.15,2013-11-07 03:49:00,
2013-11-06 21:54:00,39.8,32.8,30.34,North,360,2.0,10.0,76,0.00,,,0.66,Wunderground v.1.15,2013-11-07 03:54:00,
2013-11-06 21:59:00,39.6,33.0,30.34,NNW,345,2.0,8.0,77,0.00,,,0.66,Wunderground v.1.15,2013-11-07 03:59:00,
2013-11-06 22:04:00,39.6,33.0,30.34,NNW,333,8.0,10.0,77,0.00,,,0.66,Wunderground v.1.15,2013-11-07 04:04:00,
2013-11-06 22:05:00,38.8,32.5,30.35,NNW,346,0.0,2.0,78,0.00,,,0.66,Wunderground v.1.15,2013-11-07 04:05:00,
2013-11-06 22:06:00,38.8,32.5,30.35,NNW,346,0.0,2.0,78,0.00,,,0.66,Wunderground v.1.15,2013-11-07 04:06:00,
2013-11-06 22:07:00,38.6,32.3,30.35,NNW,346,0.0,2.0,78,0.00,,,0.66,Wunderground v.1.15,2013-11-07 04:07:00,
2013-11-06 22:08:00,38.6,32.3,30.35,NNW,346,0.0,2.0,78,0.00,,,0.66,Wunderground v.1.15,2013-11-07 04:08:00,
2013-11-06 22:09:00,39.6,33.0,30.34,NNW,342,2.0,6.0,77,0.00,,,0.66,Wunderground v.1.15,2013-11-07 04:09:00,
2013-11-06 22:10:00,38.6,32.6,30.35,NNW,346,0.0,0.0,79,0.00,,,0.66,Wunderground v.1.15,2013-11-07 04:10:00,
2013-11-06 22:11:00,38.5,32.6,30.35,NNW,346,0.0,0.0,79,0.00,,,0.66,Wunderground v.1.15,2013-11-07 04:11:00,
2013-11-06 22:12:00,38.5,32.6,30.35,NNW,346,0.0,0.0,79,0.00,,,0.66,Wunderground v.1.15,2013-11-07 04:12:00,
2013-11-06 22:13:00,38.5,32.6,30.35,NNW,346,0.0,0.0,79,0.00,,,0.66,Wunderground v.1.15,2013-11-07 04:13:00,
2013-11-06 22:14:00,39.6,33.0,30.34,NNW,341,4.0,6.0,77,0.00,,,0.66,Wunderground v.1.15,2013-11-07 04:14:00,
2013-11-06 22:15:00,38.3,32.4,30.36,NNW,346,0.0,0.0,79,0.00,,,0.66,Wunderground v.1.15,2013-11-07 04:15:00,
2013-11-06 22:16:00,38.3,32.4,30.36,NNW,346,0.0,0.0,79,0.00,,,0.66,Wunderground v.1.15,2013-11-07 04:16:00,
2013-11-06 22:17:00,38.3,32.4,30.36,NNW,346,0.0,1.0,79,0.00,,,0.66,Wunderground v.1.15,2013-11-07 04:17:00,
2013-11-06 22:18:00,38.3,32.4,30.36,NNW,346,0.0,1.0,79,0.00,,,0.66,Wunderground v.1.15,2013-11-07 04:18:00,
2013-11-06 22:19:00,39.5,32.9,30.34,NNW,341,0.0,4.0,77,0.00,,,0.66,Wunderground v.1.15,2013-11-07 04:19:00,
2013-11-06 22:20:00,38.3,32.7,30.36,NNW,346,0.0,0.0,80,0.00,,,0.66,Wunderground v.1.15,2013-11-07 04:20:00,
2013-11-06 22:24:00,39.5,32.9,30.34,NNW,336,3.0,7.0,77,0.00,,,0.66,Wunderground v.1.15,2013-11-07 04:24:00,
2013-11-06 22:29:00,39.5,33.2,30.35,NNW,340,0.0,3.0,78,0.00,,,0.66,Wunderground v.1.15,2013-11-07 04:29:00,
2013-11-06 22:34:00,39.5,32.9,30.35,NNW,343,2.0,7.0,77,0.00,,,0.66,Wunderground v.1.15,2013-11-07 04:34:00,
2013-11-06 22:39:00,39.5,32.9,30.35,NNW,346,0.0,4.0,77,0.00,,,0.66,Wunderground v.1.15,2013-11-07 04:39:00,
2013-11-06 22:44:00,39.5,32.9,30.35,NNW,346,0.0,4.0,77,0.00,,,0.66,Wunderground v.1.15,2013-11-07 04:44:00,
2013-11-06 22:49:00,39.3,32.7,30.35,NNW,340,1.0,2.0,77,0.00,,,0.66,Wunderground v.1.15,2013-11-07 04:49:00,
2013-11-06 22:54:00,39.1,32.5,30.35,NNW,346,0.0,4.0,77,0.00,,,0.66,Wunderground v.1.15,2013-11-07 04:54:00,
2013-11-06 23:00:00,38.8,32.5,30.35,NNW,346,0.0,2.0,78,0.00,,,0.66,Wunderground v.1.15,2013-11-07 05:00:00,
2013-11-06 23:07:00,38.5,32.6,30.35,NNW,346,0.0,0.0,79,0.00,,,0.66,Wunderground v.1.15,2013-11-07 05:07:00,
2013-11-06 23:12:00,38.3,32.4,30.36,NNW,346,0.0,0.0,79,0.00,,,0.66,Wunderground v.1.15,2013-11-07 05:12:00,
2013-11-06 23:17:00,38.2,32.6,30.36,NNW,346,0.0,1.0,80,0.00,,,0.66,Wunderground v.1.15,2013-11-07 05:17:00,
2013-11-06 23:23:00,38.2,32.6,30.36,NNW,346,0.0,1.0,80,0.00,,,0.66,Wunderground v.1.15,2013-11-07 05:23:00,
2013-11-06 23:28:00,38.0,32.4,30.36,NNW,346,0.0,0.0,80,0.00,,,0.66,Wunderground v.1.15,2013-11-07 05:28:00,
2013-11-06 23:33:00,37.8,32.5,30.36,NNW,346,0.0,0.0,81,0.00,,,0.66,Wunderground v.1.15,2013-11-07 05:33:00,
2013-11-06 23:38:00,37.6,32.3,30.36,NNW,346,0.0,0.0,81,0.00,,,0.66,Wunderground v.1.15,2013-11-07 05:38:00,
2013-11-06 23:43:00,37.5,32.2,30.36,NNW,346,0.0,0.0,81,0.00,,,0.66,Wunderground v.1.15,2013-11-07 05:43:00,
2013-11-06 23:48:00,37.3,32.3,30.36,NNW,346,0.0,0.0,82,0.00,,,0.66,Wunderground v.1.15,2013-11-07 05:48:00,
2013-11-06 23:53:00,37.3,32.3,30.36,NNW,346,0.0,1.0,82,0.00,,,0.66,Wunderground v.1.15,2013-11-07 05:53:00,
2013-11-06 23:58:00,37.2,32.2,30.37,NNW,346,0.0,0.0,82,0.00,,,0.66,Wunderground v.1.15,2013-11-07 05:58:00,